Location: ??
(35.5138°N, 139.6953°E)
Time: 09:14:19
(UTC+00:00)

COSMOS 2455 - Pass Details

Date: 07 June 2020
Orbit: 899 x 911 km, 67.1° (Epoch: 06 July)

Event Time Altitude Azimuth Distance (km) Brightness Sun altitude
Exits shadow 11:07:28 17° 144° (SE) 2,125 4.2 -13.0°
Maximum altitude 11:10:24 24° 106° (ESE) 1,774 3.9 -13.4°
Drops below altitude 10° 11:15:04 10° 54° (NE) 2,589 5.1 -14.1°
Sets 11:18:02 0° 41° (NE) 3,537 6.0 -14.6°
